Regional Weather Roundup
Issued by NWS

Home | Current Version | Previous Version | Graphics & Text | Print | Product List | Glossary On
Versions: 1 2 3 4 5 6 7 8 9 10 11 12 13 14 15 16 17 18 19 20 21 22 23 24 25 26 27 28 29 30 31 32 33 34 35 36 37 38 39 40 41 42 43 44 45 46 47 48 49 50
000
ASUS43 KMKX 201720
RWRWI

WISCONSIN REGIONAL WEATHER ROUNDUP
NATIONAL WEATHER SERVICE MILWAUKEE/SULLIVAN WI
1100 AM CST TUE FEB 20 2018

NOTE: "FAIR" INDICATES FEW OR NO CLOUDS BELOW 12,000 FEET WITH NO
SIGNIFICANT WEATHER AND/OR OBSTRUCTIONS TO VISIBILITY.

WIZ001-002-006>008-014>016-023>028-201800-
NORTHWEST WISCONSIN

CITY           SKY/WX    TMP DP  RH WIND       PRES   REMARKS
SUPERIOR ARPT  FLURRIES  12   8  83 NW8       29.88F WCI   1
ASHLAND        FRZ RAIN  21  20  96 N12       29.86R FOG     WCI   9
HAYWARD        CLOUDY    22  19  89 CALM      29.82R FOG
SIREN          CLOUDY    17  15  90 NW8       29.85F FOG     WCI   7
CUMBERLAND     CLOUDY    21  18  86 NW3       29.81F FOG
RICE LAKE      CLOUDY    22  20  93 W3        29.85S FOG
CHETEK         CLOUDY    21  19  93 W3        29.85R FOG
LADYSMITH      CLOUDY    22  20  93 W6        29.84R FOG     WCI  15
EAU CLAIRE     CLOUDY    22  20  92 W8        29.84R FOG     WCI  12
MENOMONIE      CLOUDY    24  21  89 W7        29.87S WCI  15
NEW RICHMOND   CLOUDY    22  18  84 NW7       29.87S WCI  13
OSCEOLA        CLOUDY    19  17  89 W9        29.92R WCI   8
$$

WIZ003>005-009-010-017-018-201800-
NORTH CENTRAL WISCONSIN

CITY           SKY/WX    TMP DP  RH WIND       PRES   REMARKS
MANITOWISH WTR LGT SNOW  21  21 100 CALM      29.75R
ARBOR VITAE    CLOUDY    24  23  93 CALM      29.74S FOG
WOODRUFF       CLOUDY    24  23  93 CALM      29.74S FOG
RHINELANDER    FOG       27  26  96 SW6       29.75R VSB 3/4 WCI  20
EAGLE RIVER    CLOUDY    26  26 100 SW6       29.75R FOG     WCI  19
LAND O LAKES   CLOUDY    26  25  96 SW5       29.76R FOG     WCI  20
PHILLIPS       CLOUDY    21  21 100 CALM      29.78R FOG
TOMAHAWK       CLOUDY    26  25  95 W3        29.78R FOG
MEDFORD        FOG       26  26  97 W6        29.78R VSB 1/4 WCI  20
MERRILL        CLOUDY    30  30 100 W6        29.79R FOG     WCI  24
$$

WIZ029-030-035-036-043>047-201800-
CENTRAL WISCONSIN

CITY           SKY/WX    TMP DP  RH WIND       PRES   REMARKS
WAUSAU         CLOUDY    31  30  96 SW8       29.77R FOG     WCI  23
MOSINEE        NOT AVBL
MARSHFIELD     CLOUDY    30  29  96 W10       29.78R WCI  21
STEVENS POINT  CLOUDY    31  31 100 SW6       29.80R FOG     WCI  25
WAUPACA        CLOUDY    34  32  93 CALM      29.81S FOG
WAUTOMA        MIX PCPN  32  31  96 SW5       29.83R WCI  27
WISC RAPIDS    MIX PCPN  32  30  92 W5        29.81S WCI  27
CAMP DOUGLAS   CLOUDY    34  34 100 CALM      29.81S
$$

WIZ011>013-019>022-031-037>040-048>050-201800-
NORTHEAST WISCONSIN

CITY           SKY/WX    TMP DP  RH WIND       PRES   REMARKS
ANTIGO         FOG       29  29 100 SW7       29.76R VSB 1/4 WCI  22
SHAWANO        CLOUDY    33  32  94 CALM      29.80R FOG
OCONTO         CLOUDY    31  31  96 CALM      29.81R
STURGEON BAY   CLOUDY    32  31  96 W5        29.80S WCI  27
GREEN BAY      CLOUDY    34  31  88 S7        29.81R WCI  28
MANITOWOC      CLOUDY    38  37  97 SW5       29.82R WCI  34
APPLETON       CLOUDY    34  34 100 CALM      29.78R FOG
CLINTONVILLE   CLOUDY    32  31  97 SW5       29.82R FOG     WCI  28
OSHKOSH        CLOUDY    33  32  96 SW5       29.81R WCI  29
$$

WIZ032>034-041-042-053>061-201800-
SOUTHWEST WISCONSIN

CITY           SKY/WX    TMP DP  RH WIND       PRES   REMARKS
LA CROSSE      CLOUDY    30  27  88 W14       29.90R WCI  19
SPARTA         CLOUDY    31  31  99 W7        29.85R FOG     WCI  24
VIROQUA        CLOUDY    32  32 100 W10       29.82R WCI  24
BOSCOBEL       CLOUDY    37  34  89 SW6       29.85S WCI  32
PRAIRIE DU CHI CLOUDY    33  32  96 W12G17    29.88R WCI  24
PLATTEVILLE    CLOUDY    34  34 100 SW8       29.85R WCI  27
$$

WIZ056-057-062-063-064-067-068-201800-
SOUTH CENTRAL WISCONSIN

CITY           SKY/WX    TMP DP  RH WIND       PRES   REMARKS
REEDSBURG      CLOUDY    35  35 100 SW8       29.82S WCI  28
BARABOO/DELLS  MIX PCPN  33  33  99 NW5       29.81R WCI  29
LONE ROCK      CLOUDY    35  35 100 CALM      29.84F FOG
MINERAL POINT  CLOUDY    36  36 100 W6        29.83F WCI  31
MADISON        RAIN      38  37  97 SW5       29.83F FOG     WCI  34
MIDDLETON      CLOUDY    39  39 100 W5        29.82F
WATERTOWN      CLOUDY    39  39 100 CALM      29.80F
MONROE         RAIN      36  36 100 SW7       29.82R WCI  30
JANESVILLE     FOG       43  43 100 CALM      29.80F VSB 1
$$

WIZ051-052-058>065-066-070>072-201800-
SOUTHEAST WISCONSIN

CITY           SKY/WX    TMP DP  RH WIND       PRES   REMARKS
MILWAUKEE      CLOUDY    43  42  97 SE6       29.82F FOG
WAUKESHA       CLOUDY    43  43 100 S3        29.81F
MILWAUKEE/TIMM CLOUDY    45  43  93 S5        29.82F
RACINE         CLOUDY    43  43 100 SE3       29.84F
BURLINGTON     FOG       44  43  97 CALM      29.81F VSB 3/4
KENOSHA        CLOUDY    52  49  89 E7        29.82F FOG
FOND DU LAC    CLOUDY    37  34  89 SW5       29.80S WCI  33
SHEBOYGAN      CLOUDY    40  39  97 S8        29.80F WCI  34
WEST BEND      CLOUDY    43  43 100 S5        29.81S
JUNEAU         CLOUDY    37  36  99 SW3       29.82R
$$

LSZ147-162-201800-
LAKE SUPERIOR

STATION/POSITION TIME  TEMP    WIND        PRES    WAVE
                       AIR SEA DIR/SP/G            HT/PER
                 (UTC) (F)     (DEG/KT/KT) (MB)    (FT/S)
DEVILS ISLAND    1700   18      30/ 14/ 17 1012.4R
SAXON HARBOR     1630   24     290/  3/  4 1009.8R
$$

LMZ867-665-643>646-201800-
LAKE MICHIGAN

STATION/POSITION TIME  TEMP    WIND        PRES    WAVE
                       AIR SEA DIR/SP/G            HT/PER
                 (UTC) (F)     (DEG/KT/KT) (MB)    (FT/S)
NORTHPORT PIER   1640   31                 1008.5S
KEWAUNEE LAKESHO 1654   35     180/  5/  6 1008.8R
SHEBOYGAN LAKESH 1700   37     180/ 17/ 18 1009.6F
PORT WASHINGTON  1630   37     180/  7/ 11 1011.2S
MILWAUKEE LAKESH 1700   37     160/  8/  9   N/A
KENOSHA   LAKESH 1700   41        CALM     1010.2
$$

TC  - TEMPERATURE IN CELSIUS
VSB - VISIBILITY IN STATUTE MILES
WCI - WIND CHILL INDEX
HX  - HEAT INDEX





USA.gov is the U.S. government's official web portal to all federal, state and local government web resources and services.